Location: Bednik
(45.3500°N, 16.3833°E)
Time: 10:39:13
(UTC+00:00)

Okean 1 - Pass Details

Date: 08 August 2020
Orbit: 539 x 554 km, 82.5° (Epoch: 20 September)

Event Time Altitude Azimuth Distance (km) Brightness Sun altitude
Rises 20:23:56 0° 355° (N) 2,738 7.8 -19.4°
Reaches altitude 10° 20:26:09 10° 359° (N) 1,841 6.7 -19.6°
Maximum altitude 20:30:08 57° 79° (E) 657 3.5 -20.0°
Enters shadow 20:30:34 54° 107° (ESE) 682 3.4 -20.1°
